Location: S�tio Afonso Gruber
(26.1760°S, 49.5250°W)
Time: 00:23:16
(UTC+00:00)

Intelsat 5-3 Rocket - Pass Details

Date: 08 October 2020
Orbit: 281 x 6111 km, 23.6° (Epoch: 22 October)

Event Time Altitude Azimuth Distance (km) Brightness Sun altitude
Exits shadow 02:04:08 17° 88° (E) 7,128 7.7 -54.5°
Drops below altitude 10° 02:09:08 10° 89° (E) 8,262 8.0 -55.0°
Sets 02:18:09 0° 89° (E) 10,056 8.6 -55.8°
